Zurück zum Katalog

QIANFAN-70

AktivKommunikationPO
NORAD 62800·PAYLOAD·🇨🇳 China

Gestartet Jan 23, 2025 von Taiyuan Satellite Launch Center

Loading…

Nächste Überflüge (nächste 24 Stunden)

TLE

AktuellSource: Space-Track

Epoche: Sep 14, 2026, 21:28 UTC

1 62800U 25016R   26257.89483215  .00000055  00000-0  65982-4 0  9996
2 62800  88.9665  74.4271 0013566 256.0671 103.8972 13.51023541 84527

Verfolge QIANFAN-70 in Echtzeit mit AllMySat

Download on the App Store